SL-19 DEB, 23487

Orbit data source: Space-Track

SL-19 DEB, 23487 is space debris in LEO originally from a launch on Mon, 26 Dec 1994 UTC launched from the Tyuratam Missile And Space Complex (TTMTR). Debris objects in space refer to the collection of defunct objects orbiting the Earth. Examples of debris include non-operational satellites, rocket bodies, and fragments generated from explosions, collisions, or faulty payload assembly.

Loading next visibility...
Identifier
23487, 1994-085K
Orbit
LEO
Country
Flag of CISCIS
Related business
Manufacturer
Unknown
Mission
Spacecraft
Bus & Motor
Unknown
Mass
Unknown
Launch date (UTC)
1994-12-26 (31 years ago)
Launch vehicle
Unknown
Launch site
Tyuratam Missile And Space Complex (TTMTR)
Object type
Payload
Rocket body
Debris
Shape & HBR
Unknown shape, 0.2 m
Radar Cross Section
Medium (>0.1 m² and <1 m²)

Expand to show TLE details & history
Last TLE update: 2 days ago

TLE from 2 days ago
0 SL-19 DEB
1 23487U 94085K   26171.38226676  .00000001  00000-0  11959-2 0  9995
2 23487  64.9398 274.0426 0170523 183.4456 305.5050 11.30416430299314
Epoch: 2026-06-20T09:10Z
TLE epoch observation values (Epoch: 2026-06-20T09:10:27.848Z)
Latitude
46.17219°
Longitude
18.82647°
Altitude
1,932.889 km
Speed
6.964 km/s
True Right ascension
04h 20m 09s
True Declination
46° 01' 29"
Sunlit
Object was in daylight at epoch
Visualization orbit readout
Latitude
Unknown
Longitude
Unknown
Altitude
Unknown
Speed
Unknown
Apparent Right ascension
Unknown
Apparent Declination
Unknown
Sunlit
N/A
Visualization observer readout
Local Sidereal Time
02:17:15
Azimuth
Unknown
Elevation
Unknown
Doppler factor
Unknown
Orbital elements
Apogee altitude
2,150.054 km
Perigee altitude
1,864.08 km
Semi-major axis
8,385.204 km
Eccentricity
0.01705
Inclination
64.9398°
RAAN
274.0426°
Arg. of periapsis
183.4456°
True anomaly
303.89456°
Mean anomaly
305.505°
Eccentric anomaly
304.70176°
Mean motion
2.82665 °/min
Orbital period
127.36 mins
BSTAR
0.0011959
Loading maneuver chart data...
Computing Atmospheric mass density...
Loading historical data...
Loading historical data...
Loading historical data...
Loading historical data...
Loading historical data...
Loading historical data...
Loading historical data...

Documentation

Showing up to 5 results
|